THORAD AGENA D DEB, 4979

Orbit data source: Space-Track

THORAD AGENA D DEB, 4979 is space debris in SSO originally from a launch on Wed, 08 Apr 1970 UTC launched from the Air Force Western Test Range (AFWTR). Debris objects in space refer to the collection of defunct objects orbiting the Earth. Examples of debris include non-operational satellites, rocket bodies, and fragments generated from explosions, collisions, or faulty payload assembly.

Loading next visibility...
Identifier
4979, 1970-025GZ
Orbit
SSO
Country
Flag of USUS
Related business
Manufacturer
Unknown
Mission
Spacecraft
Bus & Motor
Unknown
Mass
Unknown
Launch date (UTC)
1970-04-08 (56 years ago)
Launch vehicle
Unknown
Launch site
Air Force Western Test Range (AFWTR)
Object type
Payload
Rocket body
Debris
Shape & HBR
Unknown shape, 0.1 m
Radar Cross Section
Small (<0.1 m²)

Expand to show TLE details & history
Last TLE update: 13 hours ago

TLE from 13 hours ago
0 THORAD AGENA D DEB
1  4979U 70025GZ  26036.62033727  .00000170  00000-0  29101-3 0  9994
2  4979 100.0663 276.2547 0013214  92.4055 297.6482 13.59949081764167
Epoch: 2026-02-05T14:53Z
TLE epoch observation values (Epoch: 2026-02-05T14:53:17.140Z)
Latitude
29.46206°
Longitude
-88.56221°
Altitude
1,034.896 km
Speed
7.339 km/s
True Right ascension
18h 02m 06s
True Declination
29° 19' 14"
Sunlit
Object was in daylight at epoch
Visualization orbit readout
Latitude
Unknown
Longitude
Unknown
Altitude
Unknown
Speed
Unknown
Apparent Right ascension
Unknown
Apparent Declination
Unknown
Sunlit
N/A
Visualization observer readout
Local Sidereal Time
05:49:51
Azimuth
Unknown
Elevation
Unknown
Doppler factor
Unknown
Orbital elements
Apogee altitude
1,042.978 km
Perigee altitude
1,023.391 km
Semi-major axis
7,411.321 km
Eccentricity
0.00132
Inclination
100.0663°
RAAN
276.2547°
Arg. of periapsis
92.4055°
True anomaly
297.51397°
Mean anomaly
297.6482°
Eccentric anomaly
297.58109°
Mean motion
3.40173 °/min
Orbital period
105.83 mins
BSTAR
0.00029101

Documentation

Showing up to 5 results
|